Warning: Javascript must be enabled to use all the features on this page!


Page Loading - Please Wait...

Click to hideNews Bulletins

Peak Streamflow for the Nation

USGS 09402000 LITTLE COLORADO RIVER NEAR CAMERON, AZ

Coconino County, Arizona
Hydrologic Unit Code 15020016
Latitude  35°55'35", Longitude 111°34'00" NAD27
Drainage area 26,459  square miles
Contributing drainage area 26,091  square miles
Gage datum 3,979.20 feet above NGVD29
Output formats
Table
Graph
Tab-separated file
peakfq (watstore) format
Reselect output format
Water
Year
Date Gage
Height
(feet)
Stream-
flow
(cfs)
1923 1923-09-20   120,0002,7
1929 1929-04-06   50,0002,7
1947 1947-08-09 19.60 21,900
1948 1947-10-14 17.90 18,600
1949 1949-08-09 14.35 12,400
1950 1950-07-18 8.93 4,340
1951 1951-08-30 14.00 11,700
1952 1952-01-21 20.70 24,900
1953 1953-07-30 10.30 6,230
1954 1954-03-25 11.00 7,070
1955 1955-06-13 12.30 8,990
1956 1956-08-17 10.65 6,650
1957 1957-01-12 11.42 8,060
1958 1957-10-14 9.17 4,840
1959 1959-08-07 9.30 4,600
1960 1959-11-02 10.67 6,620
1961 1961-09-09 7.03 2,600
1962 1962-02-17 7.94 3,470
1963 1963-09-01 11.43 7,680
1964 1964-08-02 11.93 8,540
1965 1965-01-11 10.43 6,7705
1966 1966-01-03 12.10 9,1005
1967 1967-09-08 11.36 7,5805
1968 1968-08-12 9.91 5,6005
1969 1969-09-11 14.00 11,6005
1970 1970-09-07 14.54 12,6005
1971 1971-08-27 11.25 7,2905
1972 1972-07-18 12.50 9,2505
1973 1972-10-19 19.67 22,4005
1974 1974 6.00Bm 1,5905,Bm
1975 1974-11-01 8.65 4,1005
1976 1976-09-25 8.30 3,8705
1977 1977-08-20 7.80 3,3005
1978 1978-03-06 12.50 9,5405
1979 1978-12-23 17.36 17,8005
1980 1980-02-20 14.45 12,4005
1981 1981-09-23 9.30 5,1005
1982 1981-10-02 11.70 8,3205
1983 1983-09-30 13.30 10,6005
1984 1984-08-26 14.62 12,4005
1985 1985-03-16 10.22 6,0305
1986 1985-11-30 10.62 6,5305
1987 1987-01-30 10.77 6,7305
1988 1987-11-01 14.74 12,6005
1989 1989-08-19 14.85 12,8005
1990 1990-09-24 8.58 4,1405
1991 1991-01-07 7.19 2,6905
1992 1992-09-19 9.88 5,6205
1993 1993-01-12 17.83 18,2005
1994 1993-10-06 12.42 8,8205
1995 1995-03-10 11.50 7,7005
1996 1995-11-01 6.64 2,1805
1997 1997-09-13 8.67 4,2305
1998 1998-09-11 8.31 3,8505
1999 1999-09-11 9.29 4,9305
2000 2000-06-18 6.57 2,1205
2001 2000-10-22 7.89 3,4205
2002 2002-09-11 13.99 11,5005
2003 2003-09-10 7.81 3,3405
2004 2004-07-15 9.14 4,7605
2005 2005-02-24 10.60 6,5405
2006 2006-09-15 8.04 3,5705
2007 2006-10-06 8.79 4,3705
2008 2008-02-03 8.85 4,4305
2009 2009-05-23 6.44 2,0005
2010 2010-08-07 9.36 5,0105
2011 2011-09-14 8.20 3,7405
2012 2012-09-11 10.155 5,9702,5
2013 2013-07-26 10.14 6,0202
2014 2014-07-10 7.08 2,4805
2015 2015-07-20 7.44 2,9505
2016 2016-08-05 8.02 3,550
2017 2017-08-14 7.56 3,070
2018 2018-09-02 7.95 3,480
2019 2019-08-29 8.40 3,950
2020 2020-03-19 6.80 2,350
2021 2021-07-26 8.83 4,390
?
  Peak Gage-Height Qualification Codes.
?
  Peak Streamflow Qualification Codes.